GSAT-10

Last updated on Tue Sep 16 2025 00:02:47 GMT+0000 (Coordinated Universal Time)

1 38779U 12051B 25258.10148168 -.00000180 00000+0 00000+0 0 9992 2 38779 0.0600 263.6052 0005902 211.4718 358.7605 1.00272903 47342
UTC large
Height (km)
Speed (km/s)
/
Latitude / Longitude
Inclination (degrees)
Orbital Period (minutes)
Azimuth
Elevation
Range (km)
Doppler Factor

Next 0 passes for location: London (51.5072 / 0.1276)

Sorry there are no passes over London.